Tri-Cities, TN

5:15 AM EDT on June 25, 2017 (GMT -0400)
Tri-Cities Regional Tennessee / Virginia

Weather History for KTRI - March, 2013

Change the Weather History Date:

Tuesday, March 12, 2013

  Actual Average Record
Temperature  
Mean Temperature 41 °F 46 °F  
Max Temperature 50 °F 58 °F 81 °F (2016)
Min Temperature 32 °F 33 °F 14 °F (1969)
Degree Days  
Heating Degree Days 24 19  
Month to date heating degree days 311 250  
Since 1 July heating degree days 3480 3632  
Cooling Degree Days 0 0  
Month to date cooling degree days 0 0  
Year to date cooling degree days 0 0  
Moisture  
Dew Point 38 °F    
Average Humidity 72    
Maximum Humidity 93    
Minimum Humidity 50    
Precipitation  
Precipitation 0.18 in 0.11 in 1.85 in (1963)
Month to date precipitation 2.08 1.32  
Year to date precipitation 13.93 8.14  
Snow  
Snow 0.00 in 0.00 in - ()
Month to date snowfall 0.6 0.7  
Since 1 July snowfall 8.3 11.5  
Snow Depth 0.00 in    
Sea Level Pressure  
Sea Level Pressure 29.91 in    
Wind  
Wind Speed 8 mph (West)    
Max Wind Speed 16 mph    
Max Gust Speed 21 mph    
Visibility 8 miles    
Events Rain    
T = Trace of Precipitation, MM = Missing Value Source: NWS Daily Summary

Daily Weather History Graph

Daily Weather History Graph

Search for Another Location

Airport or City:

Trip Planner

Search our weather history database for the weather conditions in past years. The results will help you decide how hot, cold, wet, or windy it might be!

Date:

Astronomy

Mar. 12, 2013 Rise Set
Actual Time 7:44 AM EDT 7:34 PM EDT
Civil Twilight 7:18 AM EDT 8:00 PM EDT
Nautical Twilight 6:48 AM EDT 8:30 PM EDT
Astronomical Twilight 6:18 AM EDT 9:00 PM EDT
Moon 7:52 AM EDT (3/12) 8:45 PM EDT (3/12)
Length of Visible Light 12h 41m
Length of Day
11h 50m
New Moon, 1% of the Moon is Illuminated
Mar 12
New Moon
Mar 19
First Quarter
Mar 27
Full
Apr 3
Last Quarter
Apr 10
New

Hourly Weather History & Observations

Time (EDT) Temp. Windchill Dew Point Humidity Pressure Visibility Wind Dir Wind Speed Gust Speed Precip Events Conditions
12:53 AM 50.0 °F - 48.9 °F 96% 29.78 in 10.0 mi Calm Calm - N/A   Overcast
1:09 AM 48.9 °F - 48.0 °F 97% 29.81 in 2.0 mi Calm Calm - N/A   Overcast
1:40 AM 50.0 °F - 48.9 °F 96% 29.81 in 2.0 mi Calm Calm - 0.00 in Rain Light Rain
1:49 AM 50.0 °F - 48.2 °F 94% 29.81 in 3.0 mi Calm Calm - 0.00 in Rain Light Rain
1:53 AM 50.0 °F - 48.9 °F 96% 29.77 in 4.0 mi Calm Calm - 0.00 in Rain Light Rain
2:13 AM 50.0 °F - 48.9 °F 96% 29.82 in 2.5 mi SSW 5.8 mph - 0.02 in Rain Light Rain
2:29 AM 50.0 °F - 48.0 °F 93% 29.82 in 4.0 mi West 11.5 mph - 0.04 in Rain Light Rain
2:46 AM 48.9 °F - 46.9 °F 93% 29.83 in 6.0 mi West 12.7 mph - 0.07 in Rain Light Rain
2:53 AM 48.9 °F - 46.0 °F 90% 29.79 in 9.0 mi West 12.7 mph - 0.07 in Rain Light Rain
3:53 AM 46.0 °F 41.0 °F 44.1 °F 93% 29.80 in 10.0 mi West 10.4 mph - 0.00 in Rain Light Rain
4:02 AM 46.0 °F 40.6 °F 43.0 °F 89% 29.84 in 10.0 mi West 11.5 mph - 0.00 in   Overcast
4:53 AM 43.0 °F 36.4 °F 41.0 °F 93% 29.83 in 6.0 mi West 12.7 mph - 0.03 in Rain Rain
5:53 AM 42.1 °F 36.1 °F 39.0 °F 89% 29.86 in 10.0 mi West 10.4 mph - 0.08 in Rain Light Rain
6:53 AM 39.9 °F 33.9 °F 37.0 °F 89% 29.88 in 10.0 mi West 9.2 mph - 0.00 in   Overcast
7:53 AM 39.9 °F 33.9 °F 36.0 °F 86% 29.91 in 10.0 mi West 9.2 mph - N/A   Overcast
8:53 AM 39.0 °F 34.0 °F 36.0 °F 89% 29.96 in 10.0 mi West 6.9 mph - N/A   Overcast
9:53 AM 39.0 °F 34.0 °F 36.0 °F 89% 29.96 in 10.0 mi West 6.9 mph - N/A   Overcast
10:53 AM 41.0 °F 38.0 °F 35.1 °F 79% 29.96 in 10.0 mi Variable 4.6 mph - N/A   Overcast
11:53 AM 42.1 °F 37.1 °F 34.0 °F 73% 29.97 in 10.0 mi West 8.1 mph - N/A   Overcast
12:53 PM 43.0 °F 37.7 °F 34.0 °F 71% 29.98 in 10.0 mi West 9.2 mph - N/A   Overcast
1:53 PM 45.0 °F 40.6 °F 34.0 °F 65% 29.98 in 10.0 mi West 8.1 mph - N/A   Mostly Cloudy
2:53 PM 46.0 °F 42.5 °F 32.0 °F 58% 29.97 in 10.0 mi West 6.9 mph - N/A   Mostly Cloudy
3:53 PM 48.9 °F - 33.1 °F 54% 29.95 in 10.0 mi WSW 12.7 mph 18.4 mph N/A   Mostly Cloudy
4:53 PM 48.9 °F - 32.0 °F 52% 29.95 in 10.0 mi West 11.5 mph - N/A   Partly Cloudy
5:53 PM 48.9 °F - 30.9 °F 50% 29.96 in 10.0 mi West 11.5 mph - N/A   Partly Cloudy
6:53 PM 46.9 °F - 30.9 °F 54% 29.99 in 10.0 mi WSW 12.7 mph - N/A   Partly Cloudy
7:53 PM 44.1 °F 40.1 °F 30.0 °F 58% 30.01 in 10.0 mi West 6.9 mph - N/A   Partly Cloudy
8:53 PM 41.0 °F 36.4 °F 28.0 °F 60% 30.02 in 10.0 mi West 6.9 mph - N/A   Clear
9:53 PM 39.0 °F - 30.9 °F 73% 30.04 in 10.0 mi Calm Calm - N/A   Clear
10:53 PM 37.0 °F 34.5 °F 28.9 °F 73% 30.04 in 10.0 mi NNW 3.5 mph - N/A   Clear
11:53 PM 33.1 °F 30.0 °F 28.0 °F 82% 30.04 in 10.0 mi North 3.5 mph - N/A   Clear